BREEZE-M DEB (TANK), 41390

Orbit data source: Space-Track

BREEZE-M DEB (TANK), 41390 is space debris in HEO originally from a launch on Mon, 14 Mar 2016 UTC launched from the Tyuratam Missile And Space Complex (TTMTR). Debris objects in space refer to the collection of defunct objects orbiting the Earth. Examples of debris include non-operational satellites, rocket bodies, and fragments generated from explosions, collisions, or faulty payload assembly.

Loading next visibility...
Identifier
41390, 2016-017C
Orbit
HEO
Country
Flag of CISCIS
Related business
Manufacturer
Khrunichev
Mission
Spacecraft
Bus & Motor
BRIZ TANK, Unknown motor
Mass
~1,000 kg wet, 1,000 kg dry
Launch date (UTC)
2016-03-14 (11 years ago)
Launch vehicle
Unknown
Launch site
Tyuratam Missile And Space Complex (TTMTR)
Object type
Payload
Rocket body
Debris
Shape & HBR
Torus, 2.0 m
Radar Cross Section
8.218 m², Large (>1 m²)

Expand to show TLE details & history
Last TLE update: 20 hours ago

TLE from 20 hours ago
0 BREEZE-M DEB (TANK)
1 41390U 16017C   26262.34752338 -.00000089  00000-0  12243-3 0  9998
2 41390  51.6965  28.1629 5967902 317.1052   9.3593  3.82673891147026
Epoch: 2026-09-19T08:20Z
TLE epoch observation values (Epoch: 2026-09-19T08:20:26.020Z)
Latitude
-0.00001°
Longitude
-95.21773°
Altitude
1,353.488 km
Speed
8.946 km/s
True Right ascension
01h 52m 35s
True Declination
0° 00' 00"
Sunlit
Object was in full shadow at epoch
Visualization orbit readout
Latitude
Unknown
Longitude
Unknown
Altitude
Unknown
Speed
Unknown
Apparent Right ascension
Unknown
Apparent Declination
Unknown
Sunlit
N/A
Visualization observer readout
Local Sidereal Time
21:18:50
Azimuth
Unknown
Elevation
Unknown
Doppler factor
Unknown
Orbital elements
Apogee altitude
21,192.082 km
Perigee altitude
583.693 km
Semi-major axis
17,266.025 km
Eccentricity
0.59679
Inclination
51.6965°
RAAN
28.1629°
Arg. of periapsis
317.1052°
True anomaly
42.97026°
Mean anomaly
9.3593°
Eccentric anomaly
22.37647°
Mean motion
0.95665 °/min
Orbital period
376.31 mins
BSTAR
0.00012243
Loading maneuver chart data...
Computing Atmospheric mass density...
Loading historical data...
Loading historical data...
Loading historical data...
Loading historical data...
Loading historical data...
Loading historical data...
Loading historical data...
Other satellites on launch #17 in the year 2016 (2016-03-14 UTC)

Documentation

Showing up to 5 results
|